User: anonymous   Login
Location: Unspecified
(43.4680°N, 87.1740°E)
Time: 00:35:59
(UTC+00:00)
Language:

USA 245 - Orbit

View from above orbital plane
View from above orbital plane
View from above satellite
View from above satellite

Ground track
Ground track

The orbit data is extracted from the following two-line orbital elements,

1 39232U 13043A   21169.83685700 0.00004800  00000-0  47416-4 0    07
2 39232  97.8713 232.5629 0512289 284.6884  75.3115 14.81815216    01
Epoch (UTC): 18 June 2021 20:05:04
Eccentricity: 0.0512289
inclination: 97.8713°
perigee height: 265 km
apogee height: 982 km
right ascension of ascending node: 232.5629°
argument of perigee: 284.6884°
revolutions per day: 14.81815216
mean anomaly at epoch: 75.3115°
orbit number at epoch: 0

The dashed part of the orbit path shows where the satellite is in the earth's shadow,  

DLR